Погода Сурское

Погода Сурское : погода сейчас, прогноз погоды и архив. Всё, что Вы хотите узнать о погоде Сурское!

Поиск расширенной информации на нашем сайте:

Другие новости

Новости СМИ2

Главная страница сайта

Новости сайта

03.07.2017

Напоминаем, что на нашем специализированном сайте Метеоцентр.Азия вы можете получить высокодетализированные автоматические прогнозы погоды по пунктам России, СНГ и мира в авиационном формате (включающие направление и скорость ветра, видимость, явления погоды, количество и форму облачности, нижнюю и верхнюю границу облачности).

Рекомендуем: Первые признаки беременности.

Погода Сурское - сегодня

Время (UTC), дата Ветер
(°,м/с) 
Видим.   Явления Облачность Т
(°С)
Тd
(°С)
f(%) Тe
(°С)
Pmin
(гПа)
dP
(гПа)
Po
(мм)
O2
(г/м3)
Тmin Tmax R s Состояние
почвы
09 13.01.18 190 (Ю) 20000 м    4/0 верхняя 
[Ci fib]
-16.7 -19.8 77 -17  1042.8  -0.6  772  333           
12 13.01.18 230 (ЮЗ) 20000 м    8/0 верхняя 
[Cs]
-13.1 -17.1 72 -13  1041.9  -0.7  771  328           
15 13.01.18 тихо ()   20000 м    8/0 верхняя 
[Ci fib]
-19.1 -21.1 84 -19  1041.4  -0.8  771  336    -13       
18 13.01.18 080 (В) 8000 м  слаб. снег  10/0 средняя 
[As trans]
-14.8 -16.9 84 -15  1040.8  -0.4  770  330           
21 13.01.18 210 (ЮЗ) 4000 м  слаб. снег  10/0 средняя 
[As op]
-13.4 -15.5 84 -13  1039.6  -1.1  770  327           
00 14.01.18 250 (З) 8000 м  слаб. снег  10/0 средняя 
[As op]
-11.4 -13.5 84 -13  1038.5  -1  769  325           
03 14.01.18 240 (ЮЗ) 20000 м  {снег}  10/0 средняя 
[As trans]
-10.6 -12.9 83 -12  1037.4  -1  768  323  -19.1    0.2  равномерный
сухой снег
100% 
06 14.01.18 270 (З) 4000 м  слаб. снег  10/0 средняя 
[As op]
-8.9 -10.7 87 -11  1037  -0.3  768  321           
09 14.01.18 280 (З) 4000 м  слаб. снег  10/5 300 м средняя 
[St|As op]
-7.1 -9.7 82 -10  1036.4  -0.5  767  318           
12 14.01.18 290 (З) 4000 м  слаб. снег  10/0 средняя 
[As op]
-6.4 -8.4 86 -8  1036.2  0.1  767  318           
15 14.01.18 280 (З) 6000 м  слаб. снег  10/6 300 м средняя 
[Frnb|As op]
-7.1 -8.4 90 -7  1036.8  0.5  768  319    -6.4     
18 14.01.18 330 (СЗ) 20000 м  {снег}  10/8 660 м средняя 
[Sc|As trans]
-6 -7.5 89 -7  1036.9  0.2  768  317           
21 14.01.18 190 (Ю) 20000 м    10/10 660 м 
[Sc]
-6.5 -7.7 91 -6  1037.8  0.9  769  318           
00 15.01.18 270 (З) 20000 м    10/10 660 м 
[Sc]
-6.1 -7.2 92 -6  1038.3  0.5  769  318           
03 15.01.18 тихо ()   5000 м  дымка  10/10 400 м 
[St]
-6.4 -7.3 93 -6  1038.5  0.2  769  318  -7.2    0.0  равномерный
сухой снег
100% 
06 15.01.18 180 (Ю) 2000 м  дымка  10/10 330 м 
[St]
-6 -6.9 93 -6  1039  0.6  769  318           
09 15.01.18 260 (З) 4000 м  дымка  10/10 420 м 
[St]
-4.2 -5.4 91 -4  1039.1  0.2  770  316           
12 15.01.18 200 (Ю) 20000 м    10/4 300 м средняя 
[St|Ac As]
-4.3 -5.8 89 -4  1039  0.1  770  316           
15 15.01.18 тихо ()   20000 м    10/0 средняя 
[Ac As]
-4.7 -6.3 89 -5  1038.8  -0.3  769  316    -3.8       
18 15.01.18 тихо ()   20000 м    10/10 630 м 
[Sc]
-5.2 -6.4 91 -5  1038.4  -0.4  769  317           
21 15.01.18 тихо ()   20000 м    10/8 600 м средняя 
[Sc|Ac As]
-5.3 -6.3 93 -5  1038  -0.4  769  317           
00 16.01.18 280 (З) 20000 м    10/10 630 м 
[Sc]
-5 -7 86 -5  1037.8  -0.2  769  316           
03 16.01.18 тихо ()   20000 м    10/0 средняя 
[Ac As]
-5.3 -7.2 86 -5  1036.6  -1.1  768  316  -5.3      равномерный
сухой снег
100% 
06 16.01.18 290 (З) 20000 м    10/8 660 м средняя 
[Sc|Ac As]
-5.3 -7.2 86 -5  1036  -0.6  767  316  -5.4         
09 16.01.18 010 (С) 20000 м    10/10 660 м 
[Sc]
-4.7 -7.2 83 -4  1035.2  -0.8  767  315           
Время (UTC), дата Ветер
(°,м/с) 
Видим.   Явления Облачность Т
(°С)
Тd
(°С)
f(%) Тe
(°С)
Pmin
(гПа)
dP
(гПа)
Po
(мм)
O2
(г/м3)
Тmin Tmax R s Состояние
почвы

Для получения пояснительной информации подведите курсор к названию столбца.

ПОГОДА Сурское - архив

Всё, что Вы хотите узнать о погоде Сурское - удобно и подробно!

Выберите нужную дату (начиная с 1 января 2015* года) и нажмите кнопку "Найти".
Будут отображены архивные сводки погоды по пункту Сурское, начиная с указанной даты.


Отображать данные в формате CSV (для использования в таблицах Excel)


Внимание! Наш архив погоды предназначен исключительно для личного некоммерческого использования в познавательных целях. Если Вам необходимы официальные справки о состоянии погоды (для производственных, юридических, коммерческих и т.п. целей), обращайтесь в органы Росгидромета.

*Примечание: данная дата относится к архиву по метеостанциям СССР (Россия, СНГ, Балтия).
Архив по метеостанциям Зарубежной Европы и Азии (кроме Китая) хранится 10 дней, по другим регионам земного шара (Китай, Африка, Америка, Австралия, Океания) - 1 день.

Сурское - район местоположения метеостанции


Название, широта, долгота, высота метеостанции:
Сурское 54.5°ш. 46.7°д. 100 м над ур. моря [Российская Федерация]

Дополнительная информация

В oтличие oт бoльшинства пoгoдных сайтoв мы публикуем пoдрoбную метеoинфoрмацию в детальнoм прoфессиoнальнoм фoрмате.

Характеристики температуры и влажнoсти вoздуха измеряются на высoте 2 м в тени вдали oт зданий и деревьев.
Скoрoсть ветра измеряется на высoте 10 м (на урoвне рoста челoвека скoрoсть ветра ниже в 1.5-2 раза). Если метеoстанция нахoдится в гoрoде или в лесу, тo скoрoсть ветра занижена на 2-4 м/с пo сравнению с oткрытым местoм. Скoрoсть ветра над акватoриями крупных рек и oзёр, а также на вершинах хoлмoв на 2-5 м/с выше, чем в oбычных услoвиях.
Атмoсфернoе давление в разных тoчках местнoсти мoжет значительнo oтличаться oт давления на метеoстанции, в зависимoсти oт услoвий рельефа (при пoдъёме на 10 м давление пoнижается примернo на 1 мм рт.ст.).